| time (UTC) | temp F | wind direction | speed MPH | gust MPH | rain 1hr in | rain 24hr in | rain mn in | humidity % | barometer mb |
| 20260905221542 | 76 | 176 | 0.0 | 2.0 | 0.00 | 0.12 | 0.01 | 59 | 1010.8 |
| 20260905220030 | 77 | 268 | 1.0 | 5.0 | 0.00 | 0.12 | 0.01 | 55 | 1010.6 |
| 20260905214528 | 78 | 300 | 0.0 | 6.0 | 0.00 | 0.12 | 0.01 | 51 | 1010.6 |
| 20260905213028 | 78 | 30 | 1.0 | 4.0 | 0.00 | 0.12 | 0.01 | 55 | 1010.5 |
| 20260905211539 | 78 | 284 | 0.0 | 6.0 | 0.00 | 0.12 | 0.01 | 53 | 1010.6 |
| 20260905210021 | 78 | 340 | 0.0 | 4.0 | 0.00 | 0.12 | 0.01 | 56 | 1010.4 |
| 20260905204514 | 79 | 276 | 0.0 | 4.0 | 0.00 | 0.12 | 0.01 | 56 | 1010.4 |
| 20260905203037 | 79 | 73 | 0.0 | 4.0 | 0.00 | 0.12 | 0.01 | 55 | 1010.4 |
| 20260905201537 | 79 | 272 | 0.0 | 5.0 | 0.00 | 0.12 | 0.01 | 54 | 1010.5 |
| 20260905200048 | 79 | 51 | 0.0 | 6.0 | 0.00 | 0.12 | 0.01 | 55 | 1010.7 |
| 20260905194534 | 79 | 330 | 0.0 | 2.0 | 0.00 | 0.12 | 0.01 | 59 | 1010.8 |
| 20260905193029 | 78 | 139 | 1.0 | 4.0 | 0.00 | 0.12 | 0.01 | 57 | 1010.9 |
| 20260905191526 | 79 | 319 | 1.0 | 5.0 | 0.00 | 0.12 | 0.01 | 53 | 1011.1 |
| 20260905190025 | 78 | 72 | 1.0 | 5.0 | 0.00 | 0.12 | 0.01 | 60 | 1011.1 |
| 20260905184502 | 78 | 126 | 0.0 | 4.0 | 0.00 | 0.12 | 0.01 | 57 | 1011.2 |
| 20260905183016 | 78 | 229 | 0.0 | 4.0 | 0.00 | 0.12 | 0.01 | 61 | 1011.2 |
| 20260905181516 | 78 | 240 | 0.0 | 2.0 | 0.00 | 0.12 | 0.01 | 58 | 1011.3 |
| 20260905180010 | 78 | 351 | 0.0 | 2.0 | 0.00 | 0.12 | 0.01 | 61 | 1011.4 |
| 20260905174508 | 78 | 101 | 1.0 | 4.0 | 0.00 | 0.12 | 0.01 | 59 | 1011.6 |
| 20260905173009 | 79 | 310 | 1.0 | 4.0 | 0.00 | 0.12 | 0.01 | 60 | 1011.7 |
| 20260905171511 | 78 | 229 | 2.0 | 5.0 | 0.00 | 0.12 | 0.01 | 56 | 1011.6 |
| 20260905170003 | 78 | 260 | 2.0 | 5.0 | 0.00 | 0.12 | 0.01 | 58 | 1011.7 |
| 20260905164503 | 77 | 264 | 1.0 | 4.0 | 0.00 | 0.12 | 0.01 | 67 | 1011.7 |
| 20260905163025 | 77 | 360 | 1.0 | 2.0 | 0.00 | 0.12 | 0.01 | 61 | 1012.0 |
| 20260905161521 | 77 | 64 | 0.0 | 4.0 | 0.00 | 0.12 | 0.01 | 61 | 1012.1 |
| 20260905160027 | 76 | 219 | 0.0 | 4.0 | 0.00 | 0.12 | 0.01 | 68 | 1012.2 |
| 20260905154548 | 75 | 186 | 0.0 | 8.0 | 0.00 | 0.12 | 0.01 | 69 | 1012.2 |
| 20260905153012 | 76 | 243 | 0.0 | 6.0 | 0.00 | 0.12 | 0.01 | 69 | 1012.3 |
| 20260905151505 | 75 | 127 | 1.0 | 3.0 | 0.00 | 0.12 | 0.01 | 71 | 1012.3 |
| 20260905150006 | 74 | 228 | 0.0 | 4.0 | 0.00 | 0.12 | 0.01 | 74 | 1012.4 |
| 20260905144504 | 73 | 283 | 0.0 | 3.0 | 0.00 | 0.12 | 0.01 | 76 | 1012.2 |
| 20260905143025 | 73 | 65 | 0.0 | 5.0 | 0.00 | 0.12 | 0.01 | 77 | 1012.2 |
| 20260905141524 | 72 | 318 | 0.0 | 2.0 | 0.00 | 0.12 | 0.01 | 81 | 1012.2 |
| 20260905140024 | 71 | 213 | 0.0 | 3.0 | 0.00 | 0.12 | 0.01 | 83 | 1012.1 |
| 20260905134516 | 70 | 267 | 0.0 | 4.0 | 0.00 | 0.12 | 0.01 | 86 | 1012.0 |
| 20260905133010 | 70 | 269 | 0.0 | 3.0 | 0.00 | 0.12 | 0.01 | 87 | 1011.9 |
| 20260905131510 | 69 | 79 | 0.0 | 2.0 | 0.00 | 0.12 | 0.01 | 91 | 1011.7 |
| 20260905130012 | 68 | 79 | 0.0 | 1.0 | 0.00 | 0.12 | 0.01 | 94 | 1011.8 |
| 20260905124540 | 68 | 79 | 0.0 | 1.0 | 0.00 | 0.12 | 0.01 | 95 | 1012.0 |
| 20260905123028 | 67 | 79 | 0.0 | 2.0 | 0.00 | 0.12 | 0.01 | 95 | 1012.0 |
| 20260905121524 | 67 | 53 | 0.0 | 2.0 | 0.00 | 0.12 | 0.01 | 96 | 1011.9 |
| 20260905120027 | 67 | 250 | 0.0 | 2.0 | 0.00 | 0.12 | 0.01 | 96 | 1012.0 |
| 20260905114517 | 68 | 101 | 0.0 | 2.0 | 0.00 | 0.12 | 0.01 | 96 | 1011.9 |
| 20260905113014 | 68 | 101 | 0.0 | 2.0 | 0.00 | 0.12 | 0.01 | 96 | 1011.5 |
| 20260905111514 | 68 | 46 | 0.0 | 1.0 | 0.00 | 0.12 | 0.01 | 96 | 1011.4 |
| 20260905110031 | 68 | 46 | 0.0 | 0.0 | 0.00 | 0.12 | 0.01 | 96 | 1011.2 |
| 20260905104541 | 68 | 46 | 0.0 | 2.0 | 0.00 | 0.12 | 0.01 | 96 | 1011.1 |
| 20260905103033 | 69 | 46 | 0.0 | 0.0 | 0.00 | 0.12 | 0.01 | 96 | 1011.0 |
| 20260905101526 | 69 | 46 | 0.0 | 0.0 | 0.00 | 0.12 | 0.01 | 96 | 1010.9 |
| 20260905100029 | 69 | 46 | 0.0 | 0.0 | 0.00 | 0.12 | 0.01 | 96 | 1010.8 |
| 20260905094504 | 69 | 46 | 0.0 | 0.0 | 0.00 | 0.12 | 0.01 | 96 | 1010.8 |
| 20260905093003 | 69 | 46 | 0.0 | 2.0 | 0.00 | 0.12 | 0.01 | 96 | 1010.8 |
| 20260905091502 | 69 | 46 | 0.0 | 0.0 | 0.00 | 0.12 | 0.01 | 96 | 1010.9 |
| 20260905090003 | 69 | 46 | 0.0 | 0.0 | 0.00 | 0.12 | 0.01 | 96 | 1010.9 |
| 20260905084506 | 70 | 46 | 0.0 | 0.0 | 0.00 | 0.12 | 0.01 | 96 | 1010.8 |
| 20260905083004 | 70 | 46 | 0.0 | 0.0 | 0.00 | 0.12 | 0.01 | 96 | 1010.7 |
| 20260905081504 | 70 | 46 | 0.0 | 0.0 | 0.00 | 0.13 | 0.01 | 96 | 1010.8 |
| 20260905080003 | 70 | 46 | 0.0 | 0.0 | 0.00 | 0.13 | 0.01 | 96 | 1010.8 |
| 20260905074504 | 70 | 46 | 0.0 | 0.0 | 0.00 | 0.13 | 0.01 | 96 | 1010.8 |
| 20260905073010 | 70 | 46 | 0.0 | 0.0 | 0.00 | 0.13 | 0.01 | 95 | 1010.7 |
| 20260905071504 | 70 | 46 | 0.0 | 0.0 | 0.00 | 0.13 | 0.01 | 95 | 1010.8 |
| 20260905070005 | 70 | 46 | 0.0 | 0.0 | 0.00 | 0.13 | 0.01 | 95 | 1011.0 |
| 20260905064510 | 70 | 46 | 0.0 | 0.0 | 0.00 | 0.13 | 0.01 | 95 | 1011.0 |
| 20260905063004 | 70 | 46 | 0.0 | 0.0 | 0.00 | 0.13 | 0.01 | 95 | 1010.9 |
| 20260905061505 | 70 | 46 | 0.0 | 0.0 | 0.00 | 0.13 | 0.01 | 95 | 1011.1 |
| 20260905060006 | 70 | 46 | 0.0 | 0.0 | 0.00 | 0.13 | 0.01 | 95 | 1011.2 |
| 20260905054506 | 70 | 46 | 0.0 | 0.0 | 0.00 | 0.13 | 0.01 | 95 | 1011.2 |
| 20260905053018 | 70 | 46 | 0.0 | 0.0 | 0.00 | 0.13 | 0.01 | 94 | 1011.3 |
| 20260905051507 | 70 | 46 | 0.0 | 0.0 | 0.00 | 0.13 | 0.01 | 94 | 1011.5 |
| 20260905050011 | 71 | 46 | 0.0 | 0.0 | 0.01 | 0.13 | 0.01 | 94 | 1011.4 |
| 20260905044515 | 71 | 46 | 0.0 | 0.0 | 0.02 | 0.13 | 0.01 | 93 | 1011.6 |
| 20260905043008 | 73 | 46 | 0.0 | 2.0 | 0.12 | 0.14 | 0.01 | 93 | 1011.8 |
| 20260905041510 | 74 | 359 | 0.0 | 2.0 | 0.12 | 0.23 | 0.01 | 93 | 1011.7 |
| 20260905040012 | 74 | 359 | 0.0 | 0.0 | 0.11 | 0.31 | 0.00 | 92 | 1011.7 |
| 20260905034511 | 75 | 185 | 0.0 | 2.0 | 0.10 | 0.30 | 0.30 | 91 | 1011.6 |
| 20260905033016 | 75 | 222 | 0.0 | 0.0 | 0.00 | 0.20 | 0.20 | 90 | 1011.7 |
| 20260905031508 | 75 | 222 | 0.0 | 0.0 | 0.00 | 0.20 | 0.20 | 90 | 1011.5 |
| 20260905030012 | 75 | 222 | 0.0 | 0.0 | 0.00 | 0.20 | 0.20 | 90 | 1011.5 |
| 20260905024512 | 75 | 222 | 0.0 | 0.0 | 0.00 | 0.20 | 0.20 | 89 | 1011.4 |
| 20260905023009 | 75 | 222 | 0.0 | 0.0 | 0.00 | 0.20 | 0.20 | 88 | 1011.4 |
| 20260905021510 | 75 | 222 | 0.0 | 0.0 | 0.00 | 0.20 | 0.20 | 88 | 1011.5 |
| 20260905020010 | 75 | 222 | 0.0 | 0.0 | 0.00 | 0.20 | 0.20 | 88 | 1011.4 |
| 20260905014507 | 75 | 222 | 0.0 | 0.0 | 0.00 | 0.20 | 0.20 | 88 | 1011.3 |
| 20260905013004 | 75 | 222 | 0.0 | 0.0 | 0.00 | 0.20 | 0.20 | 88 | 1011.4 |
| 20260905011502 | 76 | 222 | 0.0 | 0.0 | 0.00 | 0.20 | 0.20 | 87 | 1011.4 |
| 20260905010004 | 76 | 222 | 0.0 | 0.0 | 0.00 | 0.20 | 0.20 | 87 | 1011.5 |
| 20260905004507 | 76 | 222 | 0.0 | 0.0 | 0.00 | 0.20 | 0.20 | 86 | 1011.5 |
| 20260905003021 | 76 | 222 | 0.0 | 0.0 | 0.00 | 0.20 | 0.20 | 86 | 1011.3 |
| 20260905001516 | 76 | 222 | 0.0 | 0.0 | 0.00 | 0.20 | 0.20 | 85 | 1011.0 |
| 20260905000026 | 77 | 222 | 0.0 | 0.0 | 0.00 | 0.20 | 0.20 | 84 | 1011.1 |
| 20260904234509 | 77 | 222 | 0.0 | 0.0 | 0.00 | 0.20 | 0.20 | 83 | 1010.9 |
| 20260904233005 | 77 | 222 | 0.0 | 0.0 | 0.00 | 0.20 | 0.20 | 81 | 1011.0 |
| 20260904231506 | 78 | 222 | 0.0 | 0.0 | 0.00 | 0.20 | 0.20 | 80 | 1011.1 |
| 20260904230006 | 79 | 222 | 0.0 | 0.0 | 0.00 | 0.20 | 0.20 | 79 | 1011.2 |
| 20260904224527 | 80 | 222 | 0.0 | 2.0 | 0.00 | 0.20 | 0.20 | 77 | 1011.4 |
| 20260904223021 | 81 | 188 | 0.0 | 2.0 | 0.00 | 0.20 | 0.20 | 74 | 1011.2 |